Location: Azul
(36.7830°S, 59.8500°W)
Time: 17:09:04
(UTC-03:00)

FO-29 - Pass Details

Date: 25 October 2021
Orbit: 799 x 1322 km, 98.5° (Epoch: 05 December)

Event Time Altitude Azimuth Distance (km) Brightness Sun altitude
Rises 23:12:36 0° 177° (S) 4,093 13.5 -36.3°
Reaches altitude 10° 23:15:20 10° 184° (S) 3,188 12.8 -36.6°
Maximum altitude 23:22:02 38° 248° (WSW) 1,867 11.1 -37.1°
Enters shadow 23:24:35 31° 284° (WNW) 2,135 11.2 -37.4°
